Flag for Philippines Weather past 2 weeks in Mabalacat, Philippines

Now
86 °F

Partly sunny.


Feels Like: 89 °F
Forecast: 78 / 93 °F
Wind: 7 mph from Southeast

Location: Clarkfield Pampanga International Airport

Current Time: Apr 27, 2015 at 10:36:25 AM

Latest Report: Apr 27, 2015 at 10:00 AM


Visibility: N/A

Pressure: 29.95 "Hg

Humidity: 55%

Dew point: 68 °F

Location of MabalacatLocation

Historic Weather in Mabalacat — Graph

°F

Mabalacat temperature yesterday

Maximum temperature yesterday: 91 °F (at 3:00 PM)
Minimum temperature yesterday: 77 °F (at 5:00 AM)
Average temperature yesterday: 85 °F

Past Weeks' High & Low Weather Summary

 TemperatureHumidityPressure
High95 °F (Apr 16, 2:00 PM)100% (Apr 13, 1:00 AM)30.04 "Hg (Apr 13, 1:00 AM)
Low75 °F (Apr 13, 1:00 AM)34% (Apr 12, 3:00 PM)29.80 "Hg (Apr 19, 4:00 PM)
Average82 °F71%29.92 "Hg
* Reported Apr 12 9:00 AM — Apr 27 9:00 AM, Mabalacat, Weather by CustomWeather, © 2015

Note: Actual official high and low records may vary slightly from our data, if they occured in-between our weather recording intervals... More about our weather records

Advertising

Mabalacat weather history for previous 24 hours

 ConditionsComfort  
Time TempWeatherWind HumidityBarometerVisibility
9:00 AM
Mon, Apr 27
86 °FPartly sunny.2 mph55%29.95 "HgN/A
8:00 AM81 °FPartly sunny.2 mph66%29.98 "HgN/A
7:00 AM81 °FScattered clouds.3 mph66%29.95 "HgN/A
6:00 AM77 °FPartly sunny.3 mph74%29.92 "HgN/A
5:00 AM77 °FPassing clouds.5 mph74%29.92 "HgN/A
3:00 AM77 °FPassing clouds.6 mph74%29.89 "HgN/A
2:00 AM79 °FPartly cloudy.5 mph70%29.92 "HgN/A
1:00 AM75 °FPassing clouds.6 mph78%29.92 "HgN/A
12:00 AM79 °FMostly cloudy.6 mph89%29.92 "HgN/A
11:00 PM
Sun, Apr 26
79 °FPassing clouds.6 mph70%29.95 "HgN/A
10:00 PM81 °FPassing clouds.6 mph66%29.95 "HgN/A
8:00 PM84 °FPassing clouds.2 mph51%29.92 "HgN/A
7:00 PM84 °FPassing clouds.8 mph48%29.92 "HgN/A
6:00 PM88 °FPartly sunny.10 mph49%29.89 "HgN/A
5:00 PM90 °FPartly sunny.10 mph49%29.86 "HgN/A
4:00 PM91 °FPartly sunny.8 mph41%29.86 "HgN/A
3:00 PM91 °FPartly sunny.7 mph44%29.86 "HgN/A
2:00 PM90 °FPartly sunny.10 mph46%29.89 "HgN/A
1:00 PM90 °FBroken clouds.10 mph46%29.92 "HgN/A
12:00 PM90 °FBroken clouds.9 mph46%29.95 "HgN/A
11:00 AM88 °FBroken clouds.9 mph52%29.98 "HgN/A
10:00 AM86 °FBroken clouds.6 mph59%29.98 "HgN/A
Weather by CustomWeather, © 2015

See weather overviewHow to use our weather pages